Погода в Майкопе

Погода в Майкопе : погода сейчас, прогноз погоды и архив. Всё, что Вы хотите узнать о погоде в Майкопе!

Поиск расширенной информации на нашем сайте:

Другие новости

Новости СМИ2

Главная страница сайта

Новости сайта

03.07.2017

Напоминаем, что на нашем специализированном сайте Метеоцентр.Азия вы можете получить высокодетализированные автоматические прогнозы погоды по пунктам России, СНГ и мира в авиационном формате (включающие направление и скорость ветра, видимость, явления погоды, количество и форму облачности, нижнюю и верхнюю границу облачности).


Погода в Майкопе - сегодня

Время (UTC), дата Ветер
(°,м/с) 
Видим.   Явления Облачность Т
(°С)
Тd
(°С)
f(%) Тe
(°С)
Pmin
(гПа)
dP
(гПа)
Po
(мм)
O2
(г/м3)
Тmin Tmax R s Состояние
почвы
03 19.04.18 170 (Ю) 20000 м    10/3 1000 м средняя, верхняя 
[Sc|Ac As|Ci sp]
+8.5 +4 73 +10  1016.5  -0.7  743  290  +8        сухая 
06 19.04.18 260 (З) 20000 м    10/4 1000 м средняя, верхняя 
[Sc|Ac trans|Ci sp]
+15.1 +5 51 +15  1015.2  -0.7  742  283           
03 20.04.18 200 (Ю) 10 км  слаб. ливневой дождь  10/8 600 м кучево-дожд., средняя 
[Cb cap|Ac As]
+7.9 +7.7 99 +7  1007.4  -1.5  736  287  +7.8    19    влажная 
09 20.04.18 270 (З) 20000 м    9/6 600 м средняя 
[Sc|Ac trans]
+11.8 +6.3 69 +11  1007.7  0.6  736  283           
21 20.04.18 тихо ()   10 км  слаб. ливневой дождь  10/8 600 м кучево-дожд., средняя 
[Cb cap|Ac As]
+7.7 +6.4 91 +8  1013.8  0.6  740  289           
03 21.04.18 240 (ЮЗ) 4000 м  дымка  10/5 600 м средняя 
[Sc|Ac As]
+7.7 +7.3 97 +9  1014.5  0.8  741  289  +7.7      влажная 
09 21.04.18 330 (СЗ) 20000 м    8/4 600 м средняя, верхняя 
[Sc|Ac trans|Ci sp]
+13.6 +7.4 66 +15  1015.6  0.2  742  284           
12 21.04.18 320 (СЗ) 20000 м    8/6 600 м средняя, верхняя 
[Sc|Ac trans|Ci sp]
+13.7 +7.4 66 +14  1014.9  -0.7  742  283           
18 21.04.18 150 (ЮВ) 20000 м    ясно 
+9.8 +5.8 76 +10  1015  -0.5  742  287           
21 21.04.18 170 (Ю) 20000 м    ясно 
+8 +4.8 80 +9  1015.1  0.1  741  289           
00 22.04.18 160 (Ю) 20000 м    ясно 
+6.4 +4.6 88 +6  1014.1  -1.2  741  291           
21 22.04.18 200 (Ю) 20000 м    ясно 
+11.1 +0.8 49 +11  1012.8  0.4  740  286           
00 23.04.18 200 (Ю) 20000 м    ясно 
+11.4 +1.6 51 +11  1012.6  0.1  740  286           
03 23.04.18 170 (Ю) 20000 м    3/0 верхняя 
[Ci sp]
+9.6 +2.5 61 +10  1012.8  740  288  +9.2        влажная 
06 23.04.18 220 (ЮЗ) 20000 м    3/1 1000 м верхняя 
[Sc|Ci fib]
+16.5 +3 40 +17  1012.2  0.1  740  281           
09 23.04.18 260 (З) 4{10}  20000 м    9/5 1000 м средняя, верхняя 
[Sc|Ac trans|Ci sp]
+18.2 +1.8 33 +19  1012  0.1  740  279           
18 23.04.18 260 (З) 20000 м    10/4 1000 м средняя 
[Sc|Ac As]
+11.1 +5 66 +11  1017  1.7  743  287           
21 23.04.18 150 (ЮВ) 20000 м    5/0 средняя, верхняя 
[Ac trans|Ci sp]
+6.4 +4.1 85 +7  1017.8  0.4  743  292           
00 24.04.18 150 (ЮВ) 20000 м    ясно 
+7 +5.1 88 +7  1018.3  0.5  744  291           
06 24.04.18 210 (ЮЗ) 20000 м    ясно 
+13.9 +4.2 52 +15  1020.3  1.6  746  285           
09 24.04.18 310 (СЗ) 20000 м    ясно 
+17.3 -0.7 29 +18  1020.4  0.4  746  283           
12 24.04.18 320 (СЗ) 20000 м    3/1 1000 м верхняя 
[Cu hum|Ci sp]
+18.6 -0.3 28 +19  1019.6  0.4  745  281           
15 24.04.18 320 (СЗ) 20000 м    ясно 
+17.8 +0.2 30 +19  1018.8  0.4  745  282    +18.9       
18 24.04.18 140 (ЮВ) 20000 м    6/0 верхняя 
[Ci sp]
+12.1 +2.8 53 +13  1019.5  0.2  745  287           
21 24.04.18 160 (Ю) 20000 м    ясно 
+11.2 +1.6 52 +11  1018.6  -1  744  288           
Время (UTC), дата Ветер
(°,м/с) 
Видим.   Явления Облачность Т
(°С)
Тd
(°С)
f(%) Тe
(°С)
Pmin
(гПа)
dP
(гПа)
Po
(мм)
O2
(г/м3)
Тmin Tmax R s Состояние
почвы

Для получения пояснительной информации подведите курсор к названию столбца.

ПОГОДА в Майкопе - архив

Всё, что Вы хотите узнать о погоде в Майкопе - удобно и подробно!

Выберите нужную дату (начиная с 1 января 2015* года) и нажмите кнопку "Найти".
Будут отображены архивные сводки погоды по пункту Майкоп, начиная с указанной даты.


Отображать данные в формате CSV (для использования в таблицах Excel)


Внимание! Наш архив погоды предназначен исключительно для личного некоммерческого использования в познавательных целях. Если Вам необходимы официальные справки о состоянии погоды (для производственных, юридических, коммерческих и т.п. целей), обращайтесь в органы Росгидромета.

*Примечание: данная дата относится к архиву по метеостанциям СССР (Россия, СНГ, Балтия).
Архив по метеостанциям Зарубежной Европы и Азии (кроме Китая) хранится 10 дней, по другим регионам земного шара (Китай, Африка, Америка, Австралия, Океания) - 1 день.

Майкоп - район местоположения метеостанции


Название, широта, долгота, высота метеостанции:
Майкоп 44.7°ш. 40.1°д. 207 м над ур. моря [Российская Федерация]

Дополнительная информация

В oтличие oт бoльшинства пoгoдных сайтoв мы публикуем пoдрoбную метеoинфoрмацию в детальнoм прoфессиoнальнoм фoрмате.

Характеристики температуры и влажнoсти вoздуха измеряются на высoте 2 м в тени вдали oт зданий и деревьев.
Скoрoсть ветра измеряется на высoте 10 м (на урoвне рoста челoвека скoрoсть ветра ниже в 1.5-2 раза). Если метеoстанция нахoдится в гoрoде или в лесу, тo скoрoсть ветра занижена на 2-4 м/с пo сравнению с oткрытым местoм. Скoрoсть ветра над акватoриями крупных рек и oзёр, а также на вершинах хoлмoв на 2-5 м/с выше, чем в oбычных услoвиях.
Атмoсфернoе давление в разных тoчках местнoсти мoжет значительнo oтличаться oт давления на метеoстанции, в зависимoсти oт услoвий рельефа (при пoдъёме на 10 м давление пoнижается примернo на 1 мм рт.ст.).